Hourly Weather Ruchay

Today, 16 May, Sunday

Time Temperature Precipitation Wind Pressure Humidity
00:00 +10°C° 0 mm 2 mps 744 mmHg 92%
01:00 +10°C° 0 mm 2 mps 744 mmHg 92%
02:00 +9°C° 0 mm 2 mps 744 mmHg 91%
03:00 +10°C° 0 mm 1 mps 744 mmHg 91%
04:00 +10°C° 0 mm 1 mps 745 mmHg 91%
05:00 +10°C° 0 mm 1 mps 745 mmHg 90%
06:00 +12°C° 0 mm 1 mps 745 mmHg 85%
07:00 +14°C° 0 mm 1 mps 745 mmHg 80%
08:00 +16°C° 0 mm 1 mps 745 mmHg 75%
09:00 +18°C° 0 mm 1 mps 745 mmHg 71%
10:00 +18°C° 0 mm 2 mps 746 mmHg 66%
11:00 +19°C° 0 mm 2 mps 746 mmHg 62%
12:00 +19°C° 0.3 mm 2 mps 746 mmHg 65%
13:00 +19°C° 0.3 mm 2 mps 746 mmHg 67%
14:00 +19°C° 0.3 mm 3 mps 745 mmHg 70%
15:00 +19°C° 0.1 mm 3 mps 745 mmHg 69%
16:00 +19°C° 0.1 mm 3 mps 745 mmHg 69%
17:00 +19°C° 0.1 mm 3 mps 745 mmHg 68%
18:00 +18°C° 0 mm 2 mps 745 mmHg 73%
19:00 +17°C° 0 mm 2 mps 745 mmHg 77%
20:00 +15°C° 0 mm 2 mps 745 mmHg 82%
21:00 +14°C° 0 mm 2 mps 745 mmHg 83%
22:00 +13°C° 0 mm 3 mps 745 mmHg 84%
23:00 +12°C° 0 mm 3 mps 745 mmHg 86%

Tomorrow, 17 May, Monday

Time Temperature Precipitation Wind Pressure Humidity
00:00 +12°C° 0.1 mm 3 mps 745 mmHg 88%
01:00 +12°C° 0.1 mm 4 mps 744 mmHg 90%
02:00 +12°C° 0.1 mm 4 mps 744 mmHg 91%
03:00 +12°C° 0.2 mm 4 mps 744 mmHg 92%
04:00 +12°C° 0.2 mm 4 mps 744 mmHg 93%
05:00 +13°C° 0.2 mm 4 mps 744 mmHg 94%
06:00 +14°C° 0 mm 4 mps 744 mmHg 91%
07:00 +15°C° 0 mm 5 mps 744 mmHg 88%
08:00 +16°C° 0 mm 5 mps 744 mmHg 85%
09:00 +17°C° 0.4 mm 5 mps 744 mmHg 82%
10:00 +18°C° 0.4 mm 4 mps 744 mmHg 79%
11:00 +19°C° 0.4 mm 4 mps 744 mmHg 77%
12:00 +18°C° 1.3 mm 4 mps 744 mmHg 79%
13:00 +18°C° 1.3 mm 4 mps 744 mmHg 82%
14:00 +17°C° 1.3 mm 4 mps 744 mmHg 84%
15:00 +17°C° 0.3 mm 4 mps 744 mmHg 85%
16:00 +16°C° 0.3 mm 3 mps 744 mmHg 85%
17:00 +16°C° 0.3 mm 3 mps 744 mmHg 86%
18:00 +14°C° 0.4 mm 3 mps 743 mmHg 89%
19:00 +14°C° 0.4 mm 3 mps 743 mmHg 92%
20:00 +14°C° 0.4 mm 2 mps 743 mmHg 95%
21:00 +13°C° 1 mm 3 mps 742 mmHg 95%
22:00 +12°C° 1 mm 3 mps 742 mmHg 96%
23:00 +12°C° 1 mm 3 mps 741 mmHg 97%

Day after tomorrow, 18 May, Tuesday

Time Temperature Precipitation Wind Pressure Humidity
00:00 +12°C° 0.3 mm 3 mps 741 mmHg 97%
01:00 +12°C° 0.3 mm 3 mps 740 mmHg 97%
02:00 +12°C° 0.3 mm 3 mps 740 mmHg 98%
03:00 +12°C° 0.7 mm 3 mps 739 mmHg 98%
04:00 +13°C° 0.7 mm 3 mps 738 mmHg 98%
05:00 +13°C° 0.7 mm 3 mps 737 mmHg 98%
06:00 +14°C° 0.8 mm 4 mps 737 mmHg 97%
07:00 +15°C° 0.8 mm 4 mps 737 mmHg 97%
08:00 +15°C° 0.8 mm 4 mps 737 mmHg 96%
09:00 +17°C° 0.3 mm 4 mps 736 mmHg 95%
10:00 +17°C° 0.3 mm 3 mps 736 mmHg 94%
11:00 +17°C° 0.3 mm 3 mps 736 mmHg 93%
12:00 +17°C° 0.3 mm 3 mps 737 mmHg 92%
13:00 +17°C° 0.3 mm 3 mps 737 mmHg 92%
14:00 +17°C° 0.3 mm 3 mps 737 mmHg 91%
15:00 +17°C° 0.1 mm 3 mps 737 mmHg 88%
16:00 +17°C° 0.1 mm 3 mps 738 mmHg 85%
17:00 +17°C° 0.1 mm 4 mps 738 mmHg 83%
18:00 +17°C° 0 mm 3 mps 739 mmHg 85%
19:00 +16°C° 0 mm 3 mps 739 mmHg 88%
20:00 +15°C° 0 mm 2 mps 740 mmHg 91%
21:00 +14°C° 0 mm 2 mps 740 mmHg 93%
22:00 +13°C° 0 mm 2 mps 741 mmHg 94%
23:00 +12°C° 0 mm 2 mps 741 mmHg 95%

19 May, Wednesday

Time Temperature Precipitation Wind Pressure Humidity
00:00 +10°C° 0 mm 2 mps 741 mmHg 95%
01:00 +10°C° 0 mm 3 mps 741 mmHg 96%
02:00 +9°C° 0 mm 3 mps 741 mmHg 96%
03:00 +10°C° 0 mm 3 mps 741 mmHg 96%
04:00 +10°C° 0 mm 3 mps 741 mmHg 95%
05:00 +10°C° 0 mm 3 mps 741 mmHg 95%
06:00 +10°C° 0 mm 3 mps 741 mmHg 93%
07:00 +11°C° 0 mm 4 mps 741 mmHg 90%
08:00 +12°C° 0 mm 4 mps 741 mmHg 88%
09:00 +11°C° 0.6 mm 4 mps 741 mmHg 90%
10:00 +10°C° 0.6 mm 5 mps 741 mmHg 91%
11:00 +10°C° 0.6 mm 5 mps 741 mmHg 92%
12:00 +10°C° 1.9 mm 5 mps 740 mmHg 93%
13:00 +10°C° 1.9 mm 6 mps 740 mmHg 94%
14:00 +9°C° 1.9 mm 6 mps 740 mmHg 95%
15:00 +9°C° 2.2 mm 6 mps 740 mmHg 95%
16:00 +9°C° 2.2 mm 6 mps 740 mmHg 95%
17:00 +9°C° 2.2 mm 6 mps 740 mmHg 95%
18:00 +9°C° 1 mm 6 mps 740 mmHg 95%
19:00 +9°C° 1 mm 6 mps 740 mmHg 94%
20:00 +9°C° 1 mm 6 mps 740 mmHg 94%
21:00 +9°C° 0.7 mm 7 mps 740 mmHg 94%
22:00 +9°C° 0.7 mm 7 mps 740 mmHg 94%
23:00 +8°C° 0.7 mm 7 mps 740 mmHg 93%

20 May, Thursday

Time Temperature Precipitation Wind Pressure Humidity
00:00 +8°C° 1.3 mm 7 mps 740 mmHg 94%
01:00 +8°C° 1.3 mm 7 mps 740 mmHg 95%
02:00 +8°C° 1.3 mm 7 mps 740 mmHg 95%
03:00 +8°C° 2.1 mm 7 mps 740 mmHg 95%
04:00 +8°C° 2.1 mm 7 mps 740 mmHg 95%
05:00 +8°C° 2.1 mm 7 mps 740 mmHg 95%
06:00 +8°C° 0.9 mm 6 mps 741 mmHg 95%
07:00 +8°C° 0.9 mm 6 mps 741 mmHg 94%
08:00 +8°C° 0.9 mm 6 mps 741 mmHg 94%
09:00 +9°C° 0.1 mm 5 mps 741 mmHg 92%
10:00 +9°C° 0.1 mm 5 mps 742 mmHg 90%
11:00 +10°C° 0.1 mm 5 mps 742 mmHg 87%
12:00 +11°C° 0.2 mm 6 mps 742 mmHg 83%
13:00 +13°C° 0.2 mm 6 mps 743 mmHg 79%
14:00 +14°C° 0.2 mm 6 mps 743 mmHg 75%
15:00 +14°C° 0.1 mm 6 mps 743 mmHg 73%
16:00 +15°C° 0.1 mm 5 mps 743 mmHg 71%
17:00 +15°C° 0.1 mm 4 mps 744 mmHg 68%
18:00 +14°C° 0 mm 4 mps 744 mmHg 72%
19:00 +12°C° 0 mm 4 mps 744 mmHg 75%
20:00 +11°C° 0 mm 3 mps 745 mmHg 78%
21:00 +9°C° 0 mm 3 mps 745 mmHg 80%
22:00 +8°C° 0 mm 2 mps 745 mmHg 83%
23:00 +7°C° 0 mm 2 mps 746 mmHg 85%

21 May, Friday

Time Temperature Precipitation Wind Pressure Humidity
00:00 +6°C° 0 mm 2 mps 746 mmHg 88%
01:00 +6°C° 0 mm 2 mps 746 mmHg 90%
02:00 +6°C° 0 mm 2 mps 746 mmHg 92%
03:00 +6°C° 0 mm 2 mps 747 mmHg 93%
04:00 +6°C° 0 mm 2 mps 747 mmHg 93%
05:00 +6°C° 0 mm 2 mps 747 mmHg 94%
06:00 +7°C° 0 mm 2 mps 747 mmHg 87%
07:00 +9°C° 0 mm 2 mps 747 mmHg 80%
08:00 +10°C° 0 mm 3 mps 747 mmHg 73%
09:00 +13°C° 0 mm 2 mps 747 mmHg 67%
10:00 +14°C° 0 mm 2 mps 747 mmHg 61%
11:00 +15°C° 0 mm 2 mps 746 mmHg 56%
12:00 +14°C° 0 mm 3 mps 746 mmHg 55%
13:00 +14°C° 0 mm 3 mps 746 mmHg 55%
14:00 +15°C° 0 mm 4 mps 745 mmHg 55%
15:00 +14°C° 0.4 mm 4 mps 745 mmHg 63%
16:00 +13°C° 0.4 mm 4 mps 745 mmHg 70%
17:00 +12°C° 0.4 mm 4 mps 745 mmHg 77%
18:00 +11°C° 0.1 mm 4 mps 745 mmHg 79%
19:00 +10°C° 0.1 mm 4 mps 746 mmHg 81%
20:00 +9°C° 0.1 mm 3 mps 746 mmHg 83%
21:00 +8°C° 0 mm 3 mps 746 mmHg 86%
22:00 +7°C° 0 mm 3 mps 747 mmHg 89%
23:00 +6°C° 0 mm 2 mps 747 mmHg 92%
Show more